Lid_Strength_Index
3 3 3 3 3 2 2 3 3 3 3 3 3 2 2 2 2 4 7 4 2 -1 1 6 7 8 9 10 10 11 14 16 14 13 11 7 9 7 5 7 6 5 6 4 2
3 4 4 4 4 4 3 3 3 3 3 3 3 3 3 2 4 6 3 -0 -0 -0 7 8 8 8 10 11 11 12 15 13 11 10 10 8 8 7 8 8 8 7 4 3 3
4 3 4 4 4 4 4 4 4 3 4 4 3 3 3 3 7 8 -0 -0 -1 -0 7 7 6 8 11 11 11 12 13 10 9 9 7 9 9 7 8 9 8 8 7 5 4
4 4 4 4 3 4 4 4 4 4 4 4 4 3 3 5 14 5 -0 -0 -1 4 7 7 8 11 12 12 11 12 10 9 9 8 7 9 7 9 8 8 6 5 5 5 5
4 4 4 4 4 3 4 4 4 4 4 4 4 3 4 8 8 4 -0 0 3 7 8 8 9 11 12 11 11 11 9 8 8 7 8 7 9 9 9 6 5 5 5 5 5
4 4 4 4 4 4 4 4 4 4 4 4 4 4 6 11 7 5 3 4 6 8 8 8 9 9 10 10 11 9 8 8 8 7 8 9 9 9 8 6 6 6 6 5 5
4 4 4 4 4 4 4 5 5 5 4 4 4 5 7 9 6 6 6 7 7 8 9 8 7 9 9 10 8 8 10 9 9 8 8 7 12 11 7 6 7 7 6 5 4
5 4 4 4 4 4 5 5 5 5 4 4 4 6 10 5 5 5 6 6 5 6 7 7 7 9 9 8 9 10 11 13 10 8 8 9 12 9 7 7 8 7 6 6 5
3 4 5 5 5 5 5 5 5 4 4 5 6 7 10 4 6 4 6 7 6 5 7 6 8 10 10 12 13 12 15 13 11 9 8 9 11 9 7 7 8 8 7 6 5
2 3 3 4 5 5 6 5 5 5 6 5 5 10 8 9 6 5 5 6 7 7 7 8 11 12 14 14 17 15 15 14 14 11 9 11 10 9 8 8 8 8 7 7 6
2 1 2 3 3 5 6 8 12 11 10 9 9 9 8 6 4 6 6 7 8 8 11 11 13 15 14 13 12 13 13 13 12 10 10 10 10 9 8 8 9 8 7 7 6
1 2 1 1 2 4 6 11 10 10 13 9 10 9 6 6 8 7 6 10 10 12 11 12 13 12 11 11 12 13 14 13 11 9 10 10 11 10 9 9 8 8 7 7 6
2 1 2 2 2 5 7 8 5 7 12 10 9 10 9 7 9 8 7 9 11 12 11 13 12 10 11 12 13 13 14 13 12 11 10 12 12 12 9 8 8 7 7 7 6
1 1 2 2 6 6 6 5 6 5 15 14 10 9 8 8 10 6 7 9 11 12 11 12 10 11 12 12 12 15 11 11 11 13 14 11 16 13 11 10 9 8 7 7 6
2 2 1 2 7 8 7 5 4 5 25 13 11 7 7 11 10 8 6 9 12 10 11 12 12 12 12 12 11 12 10 11 11 13 13 13 15 13 11 12 10 8 7 7 6
1 2 2 3 6 6 5 5 5 13 22 14 10 10 10 10 10 8 9 7 8 11 10 10 10 10 11 10 10 10 10 11 12 13 17 14 14 15 13 11 9 8 7 6 6
1 1 2 4 8 6 5 7 13 18 13 14 13 10 11 11 11 9 11 11 12 14 14 11 11 10 9 12 11 12 14 17 18 19 18 12 15 13 11 8 8 8 7 6 6
1 1 2 3 5 5 6 10 17 14 14 11 12 12 11 11 11 10 11 13 11 11 13 14 16 11 9 11 12 13 13 17 20 20 18 13 17 13 9 8 8 6 6 6 6
0 2 3 3 5 5 10 15 16 13 11 12 11 14 13 11 10 11 12 12 11 11 13 15 15 10 10 9 10 13 15 12 15 15 18 15 13 10 9 9 8 8 7 7 6
2 3 4 2 3 6 12 15 13 10 10 10 13 12 14 13 12 11 11 9 10 10 9 11 14 10 9 9 10 11 11 15 15 19 21 17 16 15 11 10 9 9 8 7 6
2 6 2 1 2 7 15 15 12 9 9 10 11 12 13 13 13 13 12 10 8 9 9 10 12 12 10 11 12 13 14 13 13 15 18 19 17 11 10 9 9 9 8 7 6
4 9 2 2 9 9 13 12 8 9 8 9 9 9 11 12 13 13 13 11 7 8 12 10 12 15 13 9 10 12 13 12 15 16 16 17 15 10 9 9 9 9 8 9 6
7 7 2 3 12 12 10 11 9 9 9 9 9 9 9 11 14 12 11 8 7 9 10 9 13 17 14 12 11 13 12 12 12 14 15 18 16 9 9 9 9 9 9 9 8
8 11 7 6 8 10 11 12 12 9 10 9 9 9 10 11 10 13 11 9 7 8 8 8 13 15 18 16 13 14 12 11 12 16 16 15 14 11 9 9 9 9 9 9 8
8 11 7 11 10 10 10 11 12 12 9 9 11 10 11 13 12 12 11 9 8 8 8 10 14 14 13 11 11 12 12 11 13 13 15 14 13 11 9 9 8 8 8 8 8
11 10 8 9 8 10 10 12 12 11 10 11 11 10 10 12 12 12 11 12 11 9 10 9 14 13 15 11 12 13 12 12 11 12 13 12 13 9 8 8 9 8 8 8 8
7 6 7 9 9 11 12 11 11 10 9 9 10 10 11 10 9 9 9 9 8 10 11 12 13 14 17 13 13 16 13 12 11 10 11 13 11 9 9 8 8 7 8 8 8